Content
SEND FEEDBACK

Daily
Averages
Monthly
Summary
United States of America

AUBURN, CALIFORNIA


Home > North America > United States > California
Elevation: 1279 feet     Latitude: 38 53N     Longitude: 121 04W

WEATHER
 
SELECT A DAY
Number of Records: 291,437;   Date Range: 8/19/02 - 7/28/14
 
SHARE

PRINT THIS DATA

[ ← Previous Day ]
WEATHER ALMANAC - JANUARY 3, 2013
[ Next Day → ]
[ °C ]   °F
Weather ElementAverageHighLow
Temperature41.4 °F53.6 °F (2:35 pm)33.8 °F (3:35 am)
Dewpoint32.3 °F35.6 °F (3:15 pm)28.4 °F (7:35 am)
Humidity71.8 %93 % (8:15 pm)47 % (11:55 am)
Barometer30.20 in30.25 in (9:55 pm)30.15 in (12:55 am)
Wind Speed2.7 mph10.4 mph (12:55 am)
Weather ElementAverage
Visibility10 mi
Wind DirectionENE (55.5 °)

Weather ElementTotal
Precipitation---
Heating Degree Days21.3 (Base 65)
Averaged from 66 records on January 3, 2013
WEATHER CONDITIONS BREAKOUT
WIND DIRECTION BREAKOUT
WEATHER BY HOUR - JANUARY 3, 2013
[ °C ]   °F
Local TimeTemperatureDewpointHumidityBarometerVisibilityWind DirectionWind SpeedGust SpeedPrecipitationEventsConditions
12:35 AM39.2 °F32.0 °F75 %30.16 in10.0 miEast (100°)9.2 mphClear
12:55 AM39.2 °F32.0 °F75 %30.15 in10.0 miEast (90°)10.4 mphClear
1:15 AM39.2 °F32.0 °F75 %30.15 in10.0 miEast (90°)10.4 mphClear
1:35 AM39.2 °F32.0 °F75 %30.16 in10.0 miEast (90°)9.2 mphClear
1:55 AM39.2 °F32.0 °F75 %30.16 in10.0 miESE (120°)3.5 mphClear
2:15 AM37.4 °F32.0 °F81 %30.16 in10.0 miEast (80°)4.6 mphClear
2:35 AM37.4 °F30.2 °F75 %30.17 in10.0 miCalmClear
2:55 AM35.6 °F30.2 °F81 %30.16 in10.0 miCalmClear
3:15 AM35.6 °F30.2 °F81 %30.17 in10.0 miCalmClear
3:35 AM33.8 °F30.2 °F87 %30.17 in10.0 miCalmClear
3:55 AM33.8 °F30.2 °F87 %30.17 in10.0 miCalmClear
4:15 AM33.8 °F30.2 °F87 %30.16 in10.0 miCalmClear
4:35 AM33.8 °F30.2 °F87 %30.17 in10.0 miCalmClear
4:55 AM33.8 °F30.2 °F87 %30.16 in10.0 miESE (110°)6.9 mphClear
5:15 AM35.6 °F30.2 °F81 %30.17 in10.0 miESE (110°)6.9 mphClear
5:35 AM35.6 °F30.2 °F81 %30.16 in10.0 miEast (100°)9.2 mphClear
5:55 AM37.4 °F30.2 °F75 %30.16 in10.0 miEast (100°)9.2 mphClear
6:15 AM37.4 °F30.2 °F75 %30.16 in10.0 miESE (110°)9.2 mphClear
6:35 AM35.6 °F30.2 °F81 %30.16 in10.0 miESE (110°)8.1 mphClear
6:55 AM35.6 °F30.2 °F81 %30.17 in10.0 miESE (110°)6.9 mphClear
7:15 AM35.6 °F30.2 °F81 %30.17 in10.0 miEast (100°)8.1 mphClear
7:35 AM37.4 °F28.4 °F70 %30.18 in10.0 miCalmClear
7:55 AM37.4 °F28.4 °F70 %30.18 in10.0 miEast (100°)5.8 mphClear
8:15 AM39.2 °F28.4 °F65 %30.19 in10.0 miEast (100°)3.5 mphClear
8:35 AM41.0 °F30.2 °F65 %30.19 in10.0 miCalmClear
8:55 AM42.8 °F30.2 °F61 %30.20 in10.0 miCalmClear
9:15 AM44.6 °F30.2 °F57 %30.21 in10.0 miESE (110°)4.6 mphClear
9:35 AM46.4 °F30.2 °F53 %30.22 in10.0 miCalmClear
9:55 AM46.4 °F30.2 °F53 %30.23 in10.0 miCalmClear
10:15 AM46.4 °F30.2 °F53 %30.23 in10.0 miWest (280°)4.6 mphClear
10:35 AM46.4 °F32.0 °F57 %30.24 in10.0 miWest (280°)3.5 mphClear
10:55 AM48.2 °F32.0 °F54 %30.24 in10.0 miCalmClear
11:15 AM48.2 °F32.0 °F54 %30.23 in10.0 miCalmClear
11:55 AM51.8 °F32.0 °F47 %30.22 in10.0 miCalmClear
12:15 PM51.8 °F32.0 °F47 %30.22 in10.0 miCalmClear
12:35 PM51.8 °F33.8 °F50 %30.21 in10.0 miCalmClear
1:35 PM51.8 °F33.8 °F50 %30.21 in10.0 miCalmClear
1:55 PM51.8 °F33.8 °F50 %30.20 in10.0 miCalmClear
2:35 PM53.6 °F33.8 °F47 %30.20 in10.0 miCalmClear
2:55 PM53.6 °F33.8 °F47 %30.20 in10.0 miCalmClear
3:15 PM53.6 °F35.6 °F51 %30.21 in10.0 miWest (270°)3.5 mphClear
3:35 PM50.0 °F35.6 °F58 %30.21 in10.0 miWNW (290°)5.8 mphClear
4:15 PM48.2 °F35.6 °F62 %30.21 in10.0 miCalmClear
4:35 PM48.2 °F35.6 °F62 %30.21 in10.0 miCalmClear
4:55 PM46.4 °F35.6 °F66 %30.21 in10.0 miCalmClear
5:15 PM41.0 °F35.6 °F81 %30.21 in10.0 miCalmClear
5:35 PM42.8 °F33.8 °F70 %30.22 in10.0 miCalmClear
5:55 PM37.4 °F33.8 °F87 %30.22 in10.0 miCalmClear
6:15 PM42.8 °F35.6 °F76 %30.23 in10.0 miNNE (20°)4.6 mphClear
6:35 PM42.8 °F35.6 °F76 %30.23 in10.0 miCalmClear
6:55 PM37.4 °F33.8 °F87 %30.23 in10.0 miCalmClear
7:15 PM39.2 °F33.8 °F81 %30.23 in10.0 miCalmClear
7:35 PM39.2 °F33.8 °F81 %30.23 in10.0 miCalmClear
7:55 PM39.2 °F33.8 °F81 %30.24 in10.0 miCalmClear
8:15 PM35.6 °F33.8 °F93 %30.24 in10.0 miCalmClear
8:35 PM37.4 °F33.8 °F87 %30.24 in10.0 miCalmClear
8:55 PM39.2 °F33.8 °F81 %30.24 in10.0 miCalmClear
9:15 PM39.2 °F33.8 °F81 %30.24 in10.0 miEast (90°)3.5 mphClear
9:35 PM39.2 °F33.8 °F81 %30.24 in10.0 miEast (100°)4.6 mphClear
9:55 PM42.8 °F35.6 °F76 %30.25 in10.0 miESE (110°)4.6 mphClear
10:15 PM41.0 °F33.8 °F76 %30.25 in10.0 miEast (100°)3.5 mphClear
10:35 PM39.2 °F33.8 °F81 %30.25 in10.0 miEast (100°)3.5 mphClear
10:55 PM39.2 °F33.8 °F81 %30.25 in10.0 miEast (100°)3.5 mphClear
11:15 PM41.0 °F33.8 °F76 %30.24 in10.0 miEast (100°)3.5 mphClear
11:35 PM37.4 °F33.8 °F87 %30.24 in10.0 miEast (90°)3.5 mphClear
11:55 PM35.6 °F32.0 °F87 %30.24 in10.0 miCalmClear
Hourly data recorded from KAUN, located miles away from Auburn, California







STORIES FROM OUR PARTNERS